| time (UTC) | temp F | wind direction | speed MPH | gust MPH | rain 1hr in | rain 24hr in | rain mn in | humidity % | barometer mb |
| 20260904234003 | 66 | 0 | 0.0 | 0.0 | 0.00 | 0.00 | 0.00 | 79 | 1012.2 |
| 20260904233024 | 66 | 256 | 0.0 | 1.0 | 0.00 | 0.00 | 0.00 | 80 | 1012.0 |
| 20260904232003 | 67 | 256 | 0.0 | 2.0 | 0.00 | 0.00 | 0.00 | 79 | 1012.0 |
| 20260904231003 | 67 | 256 | 0.0 | 2.0 | 0.00 | 0.00 | 0.00 | 77 | 1012.0 |
| 20260904230003 | 67 | 256 | 0.0 | 1.0 | 0.00 | 0.00 | 0.00 | 76 | 1012.0 |
| 20260904225003 | 68 | 256 | 0.0 | 2.0 | 0.00 | 0.00 | 0.00 | 75 | 1012.1 |
| 20260904224003 | 68 | 254 | 0.0 | 2.0 | 0.00 | 0.00 | 0.00 | 74 | 1012.1 |
| 20260904223003 | 68 | 260 | 0.0 | 2.0 | 0.00 | 0.00 | 0.00 | 74 | 1012.2 |
| 20260904222003 | 68 | 219 | 1.0 | 4.0 | 0.00 | 0.00 | 0.00 | 73 | 1012.1 |
| 20260904221003 | 68 | 149 | 0.0 | 3.0 | 0.00 | 0.00 | 0.00 | 73 | 1012.0 |
| 20260904220003 | 68 | 99 | 1.0 | 3.0 | 0.00 | 0.00 | 0.00 | 75 | 1012.0 |
| 20260904215003 | 69 | 97 | 1.0 | 5.0 | 0.00 | 0.00 | 0.00 | 73 | 1011.9 |
| 20260904214024 | 69 | 112 | 1.0 | 4.0 | 0.00 | 0.00 | 0.00 | 73 | 1011.9 |
| 20260904213003 | 69 | 155 | 1.0 | 2.0 | 0.00 | 0.00 | 0.00 | 74 | 1012.0 |
| 20260904212003 | 69 | 167 | 1.0 | 3.0 | 0.00 | 0.00 | 0.00 | 74 | 1011.9 |
| 20260904211003 | 69 | 341 | 0.0 | 3.0 | 0.00 | 0.00 | 0.00 | 72 | 1012.0 |
| 20260904210003 | 69 | 45 | 1.0 | 3.0 | 0.00 | 0.00 | 0.00 | 72 | 1012.0 |
| 20260904205003 | 69 | 99 | 1.0 | 4.0 | 0.00 | 0.00 | 0.00 | 72 | 1012.0 |
| 20260904204003 | 69 | 360 | 1.0 | 3.0 | 0.00 | 0.00 | 0.00 | 72 | 1012.2 |
| 20260904203024 | 70 | 62 | 1.0 | 7.0 | 0.00 | 0.00 | 0.00 | 70 | 1012.3 |
| 20260904202003 | 70 | 292 | 1.0 | 3.0 | 0.00 | 0.00 | 0.00 | 71 | 1012.2 |
| 20260904201003 | 70 | 271 | 2.0 | 7.0 | 0.00 | 0.00 | 0.00 | 72 | 1012.3 |
| 20260904200024 | 70 | 85 | 2.0 | 6.0 | 0.00 | 0.00 | 0.00 | 71 | 1012.2 |
| 20260904195003 | 70 | 37 | 1.0 | 5.0 | 0.00 | 0.00 | 0.00 | 71 | 1012.3 |
| 20260904194003 | 71 | 52 | 0.0 | 3.0 | 0.00 | 0.00 | 0.00 | 69 | 1012.3 |
| 20260904193003 | 71 | 57 | 0.0 | 5.0 | 0.00 | 0.00 | 0.00 | 67 | 1012.1 |
| 20260904192003 | 71 | 78 | 1.0 | 6.0 | 0.00 | 0.00 | 0.00 | 67 | 1012.2 |
| 20260904191003 | 71 | 255 | 1.0 | 4.0 | 0.00 | 0.00 | 0.00 | 64 | 1012.2 |
| 20260904190003 | 72 | 234 | 3.0 | 8.0 | 0.00 | 0.00 | 0.00 | 63 | 1012.3 |
| 20260904185003 | 74 | 278 | 2.0 | 8.0 | 0.00 | 0.00 | 0.00 | 62 | 1012.3 |
| 20260904184003 | 72 | 32 | 2.0 | 9.0 | 0.00 | 0.00 | 0.00 | 68 | 1012.5 |
| 20260904183003 | 72 | 243 | 2.0 | 8.0 | 0.00 | 0.00 | 0.00 | 68 | 1012.5 |
| 20260904182003 | 71 | 87 | 2.0 | 6.0 | 0.00 | 0.00 | 0.00 | 68 | 1012.6 |
| 20260904181003 | 71 | 111 | 1.0 | 3.0 | 0.00 | 0.00 | 0.00 | 68 | 1012.7 |
| 20260904180003 | 71 | 261 | 1.0 | 5.0 | 0.00 | 0.00 | 0.00 | 68 | 1012.7 |
| 20260904175003 | 71 | 54 | 2.0 | 5.0 | 0.00 | 0.00 | 0.00 | 67 | 1012.6 |
| 20260904174024 | 71 | 354 | 2.0 | 6.0 | 0.00 | 0.00 | 0.00 | 66 | 1012.6 |
| 20260904173003 | 71 | 246 | 1.0 | 6.0 | 0.00 | 0.00 | 0.00 | 68 | 1012.7 |
| 20260904172003 | 71 | 65 | 3.0 | 11.0 | 0.00 | 0.00 | 0.00 | 68 | 1012.7 |
| 20260904171003 | 71 | 223 | 2.0 | 8.0 | 0.00 | 0.00 | 0.00 | 69 | 1012.9 |
| 20260904170024 | 70 | 242 | 1.0 | 7.0 | 0.00 | 0.00 | 0.00 | 67 | 1012.8 |
| 20260904165003 | 71 | 49 | 1.0 | 4.0 | 0.00 | 0.00 | 0.00 | 66 | 1012.8 |
| 20260904164003 | 71 | 127 | 1.0 | 9.0 | 0.00 | 0.00 | 0.00 | 68 | 1012.7 |
| 20260904163024 | 71 | 198 | 2.0 | 14.0 | 0.00 | 0.00 | 0.00 | 67 | 1012.6 |
| 20260904162003 | 72 | 219 | 2.0 | 9.0 | 0.00 | 0.00 | 0.00 | 65 | 1012.6 |
| 20260904161003 | 72 | 237 | 2.0 | 8.0 | 0.00 | 0.00 | 0.00 | 67 | 1012.7 |
| 20260904160024 | 71 | 348 | 1.0 | 4.0 | 0.00 | 0.00 | 0.00 | 69 | 1012.9 |
| 20260904155003 | 70 | 335 | 2.0 | 7.0 | 0.00 | 0.00 | 0.00 | 71 | 1013.0 |
| 20260904154003 | 70 | 175 | 2.0 | 6.0 | 0.00 | 0.00 | 0.00 | 72 | 1013.0 |
| 20260904153003 | 68 | 61 | 1.0 | 4.0 | 0.00 | 0.00 | 0.00 | 75 | 1013.1 |
| 20260904152003 | 69 | 212 | 3.0 | 9.0 | 0.00 | 0.00 | 0.00 | 74 | 1013.2 |
| 20260904151024 | 68 | 131 | 1.0 | 3.0 | 0.00 | 0.00 | 0.00 | 74 | 1013.2 |
| 20260904150003 | 69 | 229 | 2.0 | 6.0 | 0.00 | 0.00 | 0.00 | 75 | 1013.3 |
| 20260904145003 | 68 | 243 | 2.0 | 6.0 | 0.00 | 0.00 | 0.00 | 76 | 1013.4 |
| 20260904144003 | 68 | 304 | 2.0 | 7.0 | 0.00 | 0.00 | 0.00 | 76 | 1013.2 |
| 20260904143003 | 67 | 285 | 1.0 | 5.0 | 0.00 | 0.00 | 0.00 | 80 | 1013.1 |
| 20260904142003 | 67 | 270 | 1.0 | 4.0 | 0.00 | 0.00 | 0.00 | 81 | 1013.2 |
| 20260904141003 | 67 | 216 | 2.0 | 6.0 | 0.00 | 0.00 | 0.00 | 82 | 1013.2 |
| 20260904140024 | 66 | 239 | 2.0 | 6.0 | 0.00 | 0.00 | 0.00 | 83 | 1013.1 |
| 20260904135024 | 65 | 242 | 2.0 | 6.0 | 0.00 | 0.00 | 0.00 | 86 | 1013.1 |
| 20260904134003 | 65 | 146 | 1.0 | 3.0 | 0.00 | 0.00 | 0.00 | 88 | 1013.1 |
| 20260904133003 | 64 | 91 | 1.0 | 6.0 | 0.00 | 0.00 | 0.00 | 89 | 1013.0 |
| 20260904132003 | 64 | 262 | 1.0 | 4.0 | 0.00 | 0.00 | 0.00 | 91 | 1013.3 |
| 20260904131003 | 63 | 258 | 1.0 | 3.0 | 0.00 | 0.00 | 0.00 | 92 | 1013.1 |
| 20260904130003 | 63 | 261 | 0.0 | 2.0 | 0.00 | 0.00 | 0.00 | 93 | 1013.1 |
| 20260904125003 | 63 | 261 | 0.0 | 3.0 | 0.00 | 0.00 | 0.00 | 94 | 1013.3 |
| 20260904124024 | 63 | 261 | 1.0 | 3.0 | 0.00 | 0.00 | 0.00 | 94 | 1013.2 |
| 20260904123024 | 62 | 261 | 0.0 | 3.0 | 0.00 | 0.00 | 0.00 | 95 | 1013.2 |
| 20260904122003 | 62 | 0 | 0.0 | 0.0 | 0.00 | 0.00 | 0.00 | 95 | 1013.2 |
| 20260904121003 | 62 | 0 | 0.0 | 0.0 | 0.00 | 0.00 | 0.00 | 95 | 1013.3 |
| 20260904120024 | 61 | 0 | 0.0 | 0.0 | 0.00 | 0.00 | 0.00 | 95 | 1013.3 |
| 20260904115024 | 61 | 0 | 0.0 | 0.0 | 0.00 | 0.00 | 0.00 | 96 | 1013.3 |
| 20260904114003 | 61 | 0 | 0.0 | 0.0 | 0.00 | 0.00 | 0.00 | 96 | 1013.4 |
| 20260904113024 | 61 | 0 | 0.0 | 0.0 | 0.00 | 0.00 | 0.00 | 96 | 1013.3 |
| 20260904112003 | 61 | 261 | 0.0 | 3.0 | 0.00 | 0.00 | 0.00 | 96 | 1013.1 |
| 20260904111003 | 60 | 0 | 0.0 | 0.0 | 0.00 | 0.00 | 0.00 | 96 | 1013.0 |
| 20260904110024 | 60 | 0 | 0.0 | 0.0 | 0.00 | 0.00 | 0.00 | 96 | 1012.8 |
| 20260904105003 | 60 | 0 | 0.0 | 0.0 | 0.00 | 0.00 | 0.00 | 96 | 1012.7 |
| 20260904104003 | 60 | 0 | 0.0 | 0.0 | 0.00 | 0.00 | 0.00 | 96 | 1012.7 |
| 20260904103003 | 59 | 0 | 0.0 | 0.0 | 0.00 | 0.00 | 0.00 | 96 | 1012.7 |
| 20260904102024 | 59 | 0 | 0.0 | 0.0 | 0.00 | 0.00 | 0.00 | 96 | 1012.7 |
| 20260904101024 | 59 | 0 | 0.0 | 0.0 | 0.00 | 0.00 | 0.00 | 96 | 1012.4 |
| 20260904100003 | 59 | 0 | 0.0 | 0.0 | 0.00 | 0.00 | 0.00 | 96 | 1012.5 |
| 20260904095003 | 59 | 0 | 0.0 | 0.0 | 0.00 | 0.00 | 0.00 | 96 | 1012.4 |
| 20260904094003 | 58 | 0 | 0.0 | 0.0 | 0.00 | 0.00 | 0.00 | 96 | 1012.4 |
| 20260904093024 | 58 | 0 | 0.0 | 0.0 | 0.00 | 0.00 | 0.00 | 96 | 1012.2 |
| 20260904092003 | 58 | 0 | 0.0 | 0.0 | 0.00 | 0.00 | 0.00 | 96 | 1012.3 |
| 20260904091024 | 58 | 0 | 0.0 | 0.0 | 0.00 | 0.00 | 0.00 | 96 | 1012.2 |
| 20260904090003 | 57 | 0 | 0.0 | 0.0 | 0.00 | 0.00 | 0.00 | 96 | 1012.1 |
| 20260904085024 | 57 | 0 | 0.0 | 0.0 | 0.00 | 0.00 | 0.00 | 96 | 1012.1 |
| 20260904084003 | 57 | 0 | 0.0 | 0.0 | 0.00 | 0.00 | 0.00 | 95 | 1012.0 |
| 20260904083003 | 57 | 0 | 0.0 | 0.0 | 0.00 | 0.00 | 0.00 | 95 | 1012.0 |
| 20260904082003 | 57 | 0 | 0.0 | 0.0 | 0.00 | 0.00 | 0.00 | 95 | 1012.0 |
| 20260904081003 | 57 | 0 | 0.0 | 0.0 | 0.00 | 0.00 | 0.00 | 95 | 1011.9 |
| 20260904080003 | 57 | 0 | 0.0 | 0.0 | 0.00 | 0.00 | 0.00 | 94 | 1012.0 |
| 20260904075024 | 58 | 0 | 0.0 | 0.0 | 0.00 | 0.00 | 0.00 | 95 | 1011.9 |
| 20260904074003 | 58 | 0 | 0.0 | 0.0 | 0.00 | 0.00 | 0.00 | 95 | 1011.9 |
| 20260904073003 | 58 | 0 | 0.0 | 0.0 | 0.00 | 0.00 | 0.00 | 95 | 1012.1 |
| 20260904072003 | 58 | 0 | 0.0 | 0.0 | 0.00 | 0.00 | 0.00 | 95 | 1012.0 |
| 20260904071024 | 59 | 0 | 0.0 | 0.0 | 0.00 | 0.00 | 0.00 | 95 | 1012.0 |
| 20260904070003 | 59 | 0 | 0.0 | 0.0 | 0.00 | 0.00 | 0.00 | 94 | 1012.0 |
| 20260904065003 | 59 | 0 | 0.0 | 0.0 | 0.00 | 0.00 | 0.00 | 94 | 1011.9 |
| 20260904064003 | 60 | 0 | 0.0 | 0.0 | 0.00 | 0.01 | 0.00 | 94 | 1012.0 |
| 20260904063003 | 60 | 0 | 0.0 | 0.0 | 0.00 | 0.01 | 0.00 | 95 | 1012.0 |
| 20260904062003 | 60 | 0 | 0.0 | 0.0 | 0.00 | 0.01 | 0.00 | 95 | 1012.2 |
| 20260904061024 | 60 | 0 | 0.0 | 0.0 | 0.00 | 0.01 | 0.00 | 95 | 1012.3 |
| 20260904060003 | 60 | 0 | 0.0 | 0.0 | 0.00 | 0.01 | 0.00 | 95 | 1012.3 |
| 20260904055024 | 60 | 0 | 0.0 | 0.0 | 0.00 | 0.01 | 0.00 | 95 | 1012.4 |
| 20260904054003 | 60 | 0 | 0.0 | 0.0 | 0.00 | 0.01 | 0.00 | 95 | 1012.4 |
| 20260904053003 | 60 | 0 | 0.0 | 0.0 | 0.00 | 0.01 | 0.00 | 94 | 1012.5 |
| 20260904052024 | 61 | 0 | 0.0 | 0.0 | 0.00 | 0.01 | 0.00 | 94 | 1012.5 |
| 20260904051003 | 61 | 0 | 0.0 | 0.0 | 0.00 | 0.01 | 0.00 | 94 | 1012.6 |
| 20260904050003 | 61 | 0 | 0.0 | 0.0 | 0.00 | 0.01 | 0.00 | 94 | 1012.5 |
| 20260904045003 | 61 | 0 | 0.0 | 0.0 | 0.00 | 0.01 | 0.00 | 94 | 1012.6 |
| 20260904044003 | 61 | 0 | 0.0 | 0.0 | 0.00 | 0.03 | 0.00 | 94 | 1012.7 |
| 20260904043003 | 61 | 0 | 0.0 | 0.0 | 0.00 | 0.10 | 0.00 | 94 | 1012.7 |
| 20260904042024 | 62 | 0 | 0.0 | 0.0 | 0.00 | 0.14 | 0.00 | 93 | 1012.7 |
| 20260904041024 | 62 | 261 | 0.0 | 1.0 | 0.00 | 0.16 | 0.00 | 93 | 1012.7 |
| 20260904040025 | 63 | 0 | 0.0 | 0.0 | 0.00 | 0.17 | 0.00 | 93 | 1012.6 |
| 20260904035003 | 63 | 0 | 0.0 | 0.0 | 0.00 | 0.17 | 0.17 | 94 | 1012.7 |
| 20260904034003 | 63 | 261 | 0.0 | 1.0 | 0.00 | 0.18 | 0.17 | 94 | 1012.8 |
| 20260904033003 | 62 | 261 | 0.0 | 3.0 | 0.00 | 0.19 | 0.17 | 94 | 1012.8 |
| 20260904032003 | 62 | 0 | 0.0 | 0.0 | 0.00 | 0.19 | 0.17 | 94 | 1012.8 |
| 20260904031003 | 62 | 0 | 0.0 | 0.0 | 0.00 | 0.20 | 0.17 | 94 | 1012.8 |
| 20260904030024 | 62 | 0 | 0.0 | 0.0 | 0.00 | 0.20 | 0.17 | 94 | 1012.8 |
| 20260904025003 | 62 | 0 | 0.0 | 0.0 | 0.00 | 0.20 | 0.17 | 94 | 1012.8 |
| 20260904024003 | 62 | 0 | 0.0 | 0.0 | 0.00 | 0.20 | 0.17 | 94 | 1012.8 |
| 20260904023024 | 62 | 0 | 0.0 | 0.0 | 0.00 | 0.20 | 0.17 | 94 | 1012.9 |
| 20260904022003 | 62 | 0 | 0.0 | 0.0 | 0.00 | 0.20 | 0.17 | 93 | 1012.9 |
| 20260904021003 | 62 | 0 | 0.0 | 0.0 | 0.00 | 0.20 | 0.17 | 93 | 1012.9 |
| 20260904020003 | 62 | 0 | 0.0 | 0.0 | 0.00 | 0.20 | 0.17 | 93 | 1013.0 |
| 20260904015003 | 62 | 0 | 0.0 | 0.0 | 0.00 | 0.20 | 0.17 | 93 | 1013.2 |
| 20260904014024 | 62 | 0 | 0.0 | 0.0 | 0.00 | 0.20 | 0.17 | 93 | 1013.3 |
| 20260904013003 | 62 | 0 | 0.0 | 0.0 | 0.00 | 0.20 | 0.17 | 92 | 1013.5 |
| 20260904012003 | 62 | 0 | 0.0 | 0.0 | 0.00 | 0.21 | 0.17 | 92 | 1013.4 |
| 20260904011003 | 63 | 0 | 0.0 | 0.0 | 0.00 | 0.21 | 0.17 | 91 | 1013.5 |
| 20260904010003 | 63 | 0 | 0.0 | 0.0 | 0.00 | 0.21 | 0.17 | 91 | 1013.4 |
| 20260904005003 | 64 | 0 | 0.0 | 0.0 | 0.00 | 0.21 | 0.17 | 91 | 1013.2 |
| 20260904004024 | 64 | 0 | 0.0 | 0.0 | 0.00 | 0.21 | 0.17 | 91 | 1013.1 |
| 20260904003003 | 64 | 0 | 0.0 | 0.0 | 0.00 | 0.21 | 0.17 | 90 | 1013.1 |
| 20260904002003 | 65 | 0 | 0.0 | 0.0 | 0.00 | 0.21 | 0.17 | 90 | 1013.0 |
| 20260904001003 | 65 | 0 | 0.0 | 0.0 | 0.00 | 0.21 | 0.17 | 89 | 1013.0 |
| 20260904000003 | 65 | 0 | 0.0 | 0.0 | 0.00 | 0.21 | 0.17 | 88 | 1012.7 |
| 20260903235003 | 66 | 0 | 0.0 | 0.0 | 0.00 | 0.21 | 0.17 | 87 | 1012.6 |